Location: Asheville, NC
(35.6000°N, 82.5500°W)
Time: 04:32:45

XW-2C - Pass Details

Date: 11 January 2018
Orbit: 511 x 531 km, 97.5° (Epoch: 20 March)

Event Time Altitude Azimuth Distance (km) Brightness Sun altitude
Rises 18:48:03 0° 204° (SSW) 2,654 ? -14.3°
Reaches altitude 10° 18:50:48 10° 227° (SW) 1,771 ? -14.8°
Maximum altitude 18:53:13 16° 266° (W) 1,432 ? -15.3°
Drops below altitude 10° 18:55:39 10° 305° (NW) 1,781 ? -15.8°
Sets 18:58:27 0° 328° (NNW) 2,675 ? -16.3°
